Regional Weather Roundup
Issued by NWS Kansas City/Pleasant Hill, MO

Home | Current Version | Previous Version | Text Only | Print | Product List | Glossary Off
Versions: 1 2 3 4 5 6 7 8 9 10 11 12 13 14 15 16 17 18 19 20 21 22 23 24 25 26 27 28 29 30 31 32 33 34 35 36 37 38 39 40 41 42 43 44 45 46 47 48 49 50

000
ASUS43 KEAX 262111
RWREAX

WEATHER ROUNDUP FOR EASTERN KANSAS AND NORTHWEST MISSOURI
NATIONAL WEATHER SERVICE KANSAS CITY/PLEASANT HILL MO
300 PM CST MON JAN 26 2015

KSZ040-057-103>105-MOZ028-029-037-043-262200-
...KANSAS CITY METROPOLITAN AREA...

CITY           SKY/WX    TMP DP  RH WIND       PRES   REMARKS
K.C. INTL      MOSUNNY   59  36  42 NW15      29.90S
K.C. DOWNTOWN  MOSUNNY   61  36  39 NW12      29.89F
LEES SUMMIT    SUNNY     59  36  42 NW15      29.90S
OLATHE - IXD   SUNNY     60  36  40 NW8       29.92S
OLATHE - OJC   SUNNY     60  36  40 NW10G22   29.91R
LAWRENCE       SUNNY     64  36  35 NW15      29.92F

$$

MOZ001>008-011>017-020>025-030>033-038>040-044>046-053-054-262200-
...NORTHERN AND CENTRAL MISSOURI...

CITY           SKY/WX    TMP DP  RH WIND       PRES   REMARKS
ST. JOSEPH     SUNNY     61  35  37 NW18      29.91R
MOSBY          CLEAR     57  34  41 W13       29.90R
WARRENSBURG    MOSUNNY   55  34  44 W9G21     29.89R
WHITEMAN AFB   SUNNY     56  36  47 W16G28    29.88R
CLINTON        MOSUNNY   57  37  47 W14G21    29.91R
SEDALIA        SUNNY     54  38  54 W20       29.88R
WARSAW         NOT AVBL
MARSHALL       SUNNY     55  37  50 W16       29.87F
CHILLICOTHE      N/A     55  37  50 NW14G21   29.88R
MOBERLY        SUNNY     50  34  53 W18       29.84S
KIRKSVILLE     SUNNY     51  36  56 NW15G24   29.83R

$$

MOZ041-047>049-056>058-063>065-088>090-097-262200-
...EASTERN AND SOUTHERN MISSOURI...

CITY           SKY/WX    TMP DP  RH WIND       PRES   REMARKS
ST. LOUIS INTL MOSUNNY   41  29  62 S9        29.86F
SPIRIT OF STL  MOSUNNY   44  31  60 VRB5      29.85F
COLUMBIA       SUNNY     51  36  56 W16G25    29.84F
JEFFERSON CITY SUNNY     54  34  46 W14G23    29.85F
MEXICO         SUNNY     50  41  71 W14G20    29.83F
HANNIBAL       MOSUNNY   46  34  61 SW5       29.84R
ROLLA          MOSUNNY   51  33  50 W15       29.82R
LEBANON        SUNNY     55  34  44 W17G23    29.87F
OSAGE BEACH    SUNNY     54  34  47 SW15G21   29.85R
SPRINGFIELD    SUNNY     57  31  37 W16       29.93S
BRANSON        SUNNY     57  32  38 W14       29.95S
NEVADA         SUNNY     59  36  41 W10       29.94R
JOPLIN         SUNNY     58  34  40 W15       29.96F
WEST PLAINS    SUNNY     52  30  43 SW13      29.89F

$$

IAZ060-094-KSZ022-034>040-054-083-096-NEZ052-066-093-262200-
...KANSAS...SOUTHEAST NEBRASKA AND IOWA...

CITY           SKY/WX    TMP DP  RH WIND       PRES   REMARKS
TOPEKA         SUNNY     65  36  34 NW12G22   29.93S
MANHATTAN      SUNNY     67  35  30 N12       29.95F
EMPORIA        SUNNY     65  35  33 NW17G24   29.95S
CHANUTE        SUNNY     66  36  32 NW14      29.95S
WICHITA        MOSUNNY   72  34  24 NW20G26   29.98S
OMAHA          MOSUNNY   58  35  42 N18       29.92R
LINCOLN        SUNNY     62  32  32 NW16      29.96S
FALLS CITY     SUNNY     62  32  32 N16G25    29.91S
LAMONI         SUNNY     54  37  52 NW23      29.85R
DES MOINES     MOSUNNY   53  36  52 NW22G29   29.84R

$$




USA.gov is the U.S. government's official web portal to all federal, state and local government web resources and services.